Location: Holkham
(52.9500°N, 0.8167°E)
Time: 06:15:01
(UTC+00:00)

Cosmos 2278 - Pass Details

Date: 19 May 2025
Orbit: 839 x 850 km, 71.1° (Epoch: 18 June)

Event Time Altitude Azimuth Distance (km) Brightness Sun altitude
Rises 23:05:23 0° 327° (NNW) 3,406 8.2 -16.3°
Reaches altitude 10° 23:07:50 10° 326° (NW) 2,467 7.2 -16.4°
Maximum altitude 23:13:28 71° 244° (WSW) 890 3.7 -16.6°
Enters shadow 23:16:36 27° 166° (SSE) 1,562 4.5 -16.6°
